Weather History for Pittsburg, KS

Change the Weather History Date:

Wednesday, August 7, 2013

  Actual Average (KJLN) Record (KJLN)
Temperature  
Mean Temperature 78 °F 81 °F  
Max Temperature 84 °F 92 °F 107 °F (2011)
Min Temperature 73 °F 70 °F 53 °F (1997)
Degree Days  
Heating Degree Days 0 0  
Month to date heating degree days 0  
Since 1 June heating degree days 5  
Since 1 July heating degree days 0  
Cooling Degree Days 14 16  
Month to date cooling degree days 112  
Year to date cooling degree days 1083  
Since 1 June cooling degree days 903  
Growing Degree Days 28 (Base 50)    
Moisture  
Dew Point 77 °F    
Average Humidity 91    
Maximum Humidity 100    
Minimum Humidity 69    
Precipitation  
Precipitation 0.27 in 0.10 in 2.02 in (1960)
Month to date precipitation 0.69  
Year to date precipitation 28.31  
Sea Level Pressure  
Sea Level Pressure 29.90 in    
Wind  
Wind Speed 5 mph (East)    
Max Wind Speed 17 mph    
Max Gust Speed 29 mph    
Visibility 10 miles    
Events Thunderstorm    
T = Trace of Precipitation, MM = Missing Value Source: NWS Daily Summary

Daily Weather History Graph

Daily Weather History Graph

Search for Another Location

Airport:

Trip Planner

Search our weather history database for the weather conditions in past years. The results will help you decide how hot, cold, wet, or windy it might be!

Date:

Astronomy

Aug. 07, 2013 Rise Set
Actual Time 6:28 AM CDT 8:20 PM CDT
Civil Twilight 5:59 AM CDT 8:48 PM CDT
Nautical Twilight 5:25 AM CDT 9:23 PM CDT
Astronomical Twilight 4:48 AM CDT 9:59 PM CDT
Moon 7:15 AM CDT (8/7) 8:31 PM CDT (8/7)
Length of Visible Light 14h 48m
Length of Day
13h 51m
New Moon, 1% of the Moon is Illuminated
Aug 7
New Moon
Aug 14
First Quarter
Aug 20
Full
Aug 28
Last Quarter
Sep 5
New

Hourly Weather History & Observations

Time (CDT) Temp. Heat Index Dew Point Humidity Pressure Visibility Wind Dir Wind Speed Gust Speed Precip Events Conditions
12:15 AM 81.0 °F 90.6 °F 81.1 °F 100% 29.84 in 10.0 mi South 5.8 mph - N/A   Clear
12:35 AM 81.0 °F 90.6 °F 81.1 °F 100% 29.84 in 10.0 mi South 5.8 mph - N/A Thunderstorm Clear
12:55 AM 81.0 °F 90.6 °F 81.1 °F 100% 29.83 in 10.0 mi South 5.8 mph - N/A   Clear
1:15 AM 81.0 °F 90.6 °F 81.1 °F 100% 29.82 in 10.0 mi South 4.6 mph - N/A   Clear
1:35 AM 81.0 °F 90.6 °F 81.1 °F 100% 29.81 in 10.0 mi SSE 4.6 mph - N/A   Clear
1:55 AM 81.0 °F 90.6 °F 81.1 °F 100% 29.81 in 10.0 mi South 4.6 mph - N/A   Clear
2:15 AM 81.0 °F 90.6 °F 81.1 °F 100% 29.82 in 10.0 mi SW 4.6 mph - N/A   Scattered Clouds
2:35 AM 81.0 °F 90.6 °F 81.1 °F 100% 29.82 in 10.0 mi SSW 8.1 mph - N/A   Scattered Clouds
2:55 AM 81.0 °F 90.4 °F 80.8 °F 99% 29.84 in 10.0 mi WSW 11.5 mph - N/A Thunderstorm Scattered Clouds
3:15 AM 77.7 °F - 77.2 °F 98% 29.90 in 5.0 mi West 17.3 mph 28.8 mph 0.05 in Thunderstorm Thunderstorm
3:35 AM 76.1 °F - 76.1 °F 100% 29.89 in 5.0 mi WNW 3.5 mph 20.7 mph 0.08 in Thunderstorm Thunderstorm
3:55 AM 76.1 °F - - N/A% 29.90 in 7.0 mi North 5.8 mph - 0.10 in Thunderstorm Overcast
4:15 AM 75.6 °F - - N/A% 29.90 in 7.0 mi NNE 11.5 mph - 0.01 in Thunderstorm Overcast
4:35 AM 73.4 °F - - N/A% 29.88 in 7.0 mi NE 8.1 mph - 0.03 in   Overcast
4:55 AM 73.4 °F - - N/A% 29.85 in 10.0 mi NE 8.1 mph - 0.04 in   Overcast
5:15 AM 73.8 °F - - N/A% 29.85 in 10.0 mi Calm Calm - 0.01 in   Mostly Cloudy
5:35 AM 75.9 °F - - N/A% 29.84 in 10.0 mi Calm Calm - 0.02 in   Scattered Clouds
5:55 AM 74.1 °F - - N/A% 29.86 in 10.0 mi Calm Calm - 0.03 in   Clear
6:15 AM 73.4 °F - - N/A% 29.84 in 10.0 mi Calm Calm - 0.01 in   Clear
6:35 AM 73.4 °F - - N/A% 29.85 in 10.0 mi Calm Calm - 0.02 in   Clear
6:55 AM 73.4 °F - - N/A% 29.87 in 7.0 mi Calm Calm - 0.02 in   Clear
7:15 AM 73.4 °F - - N/A% 29.90 in 7.0 mi Calm Calm - 0.01 in   Scattered Clouds
7:35 AM 73.8 °F - - N/A% 29.91 in 7.0 mi East 3.5 mph - 0.01 in   Scattered Clouds
7:55 AM 75.9 °F - - N/A% 29.92 in 7.0 mi SE 3.5 mph - 0.02 in   Clear
8:15 AM 76.1 °F - - N/A% 29.92 in 10.0 mi SE 6.9 mph - N/A   Clear
8:35 AM 76.1 °F - - N/A% 29.94 in 10.0 mi East 6.9 mph - 0.01 in   Scattered Clouds
8:55 AM 76.1 °F - - N/A% 29.93 in 10.0 mi East 9.2 mph - 0.01 in   Clear
9:15 AM 76.1 °F - 76.1 °F 100% 29.92 in 10.0 mi ESE 9.2 mph 17.3 mph N/A   Clear
9:35 AM 76.1 °F - 76.1 °F 100% 29.92 in 10.0 mi SE 12.7 mph 16.1 mph N/A   Clear
9:55 AM 76.1 °F - 76.1 °F 100% 29.92 in 10.0 mi ESE 10.4 mph 16.1 mph 0.01 in   Clear
10:15 AM 76.1 °F - 76.1 °F 100% 29.92 in 10.0 mi ESE 8.1 mph - N/A   Clear
10:35 AM 76.1 °F - 76.1 °F 100% 29.94 in 10.0 mi ESE 8.1 mph - N/A   Clear
10:55 AM 76.6 °F - 76.6 °F 100% 29.95 in 10.0 mi SE 6.9 mph - N/A   Clear
11:15 AM 76.5 °F - 76.3 °F 99% 29.94 in 10.0 mi SE 9.2 mph - N/A   Clear
11:35 AM 76.1 °F - 76.1 °F 100% 29.93 in 10.0 mi SE 6.9 mph - N/A   Clear
11:55 AM 77.7 °F - 77.7 °F 100% 29.94 in 10.0 mi SE 5.8 mph - 0.01 in   Clear
12:15 PM 78.4 °F - 77.4 °F 96% 29.94 in 10.0 mi ESE 8.1 mph - N/A   Clear
12:35 PM 79.3 °F - 77.0 °F 93% 29.94 in 10.0 mi SE 8.1 mph - N/A   Clear
12:55 PM 78.6 °F - 76.6 °F 94% 29.92 in 10.0 mi SE 6.9 mph - N/A   Clear
1:15 PM 79.2 °F - 77.4 °F 94% 29.92 in 10.0 mi SSE 6.9 mph - N/A   Clear
1:35 PM 79.9 °F - 76.5 °F 89% 29.93 in 10.0 mi SSE 4.6 mph - N/A   Clear
1:55 PM 80.8 °F 87.8 °F 77.5 °F 90% 29.92 in 10.0 mi SW 4.6 mph - N/A   Clear
2:15 PM 81.0 °F 87.7 °F 76.8 °F 87% 29.92 in 10.0 mi SW 3.5 mph - N/A   Clear
2:35 PM 81.3 °F 88.3 °F 76.3 °F 85% 29.91 in 10.0 mi Calm Calm - N/A   Clear
2:55 PM 82.0 °F 89.4 °F 76.1 °F 82% 29.91 in 10.0 mi SW 3.5 mph - 0.01 in   Clear
3:15 PM 82.4 °F 89.0 °F 74.5 °F 77% 29.90 in 10.0 mi North 3.5 mph - N/A   Clear
3:35 PM 82.4 °F 88.2 °F 73.4 °F 74% 29.90 in 10.0 mi Calm Calm - N/A   Clear
3:55 PM 82.4 °F 89.0 °F 74.5 °F 77% 29.91 in 10.0 mi Calm Calm - N/A   Clear
4:15 PM 81.9 °F 88.5 °F 75.2 °F 80% 29.91 in 10.0 mi Calm Calm - N/A   Clear
4:35 PM 82.0 °F 88.6 °F 75.0 °F 79% 29.90 in 10.0 mi NNE 3.5 mph - N/A   Clear
4:55 PM 82.8 °F 89.2 °F 73.9 °F 75% 29.90 in 10.0 mi NNE 3.5 mph - N/A   Clear
5:15 PM 83.7 °F 90.7 °F 74.3 °F 73% 29.90 in 10.0 mi NE 5.8 mph - N/A   Clear
5:35 PM 84.4 °F 91.0 °F 73.4 °F 69% 29.90 in 10.0 mi NE 6.9 mph - N/A   Scattered Clouds
5:55 PM 84.4 °F 91.3 °F 73.8 °F 70% 29.90 in 10.0 mi NE 4.6 mph - N/A   Scattered Clouds
6:15 PM 83.8 °F 91.4 °F 74.7 °F 74% 29.90 in 10.0 mi ENE 3.5 mph - 0.01 in   Scattered Clouds
6:35 PM 83.7 °F 91.0 °F 74.7 °F 74% 29.90 in 10.0 mi ENE 6.9 mph - 0.01 in   Scattered Clouds
6:55 PM 83.1 °F 89.8 °F 73.9 °F 74% 29.90 in 10.0 mi NE 4.6 mph - 0.01 in   Clear
7:15 PM 81.7 °F 87.6 °F 74.1 °F 78% 29.91 in 10.0 mi ENE 4.6 mph - N/A   Clear
7:35 PM 81.1 °F 86.8 °F 74.3 °F 80% 29.91 in 10.0 mi ENE 4.6 mph - N/A   Clear
7:55 PM 81.0 °F 87.3 °F 75.9 °F 85% 29.91 in 10.0 mi Calm Calm - N/A   Clear
8:15 PM 81.0 °F 88.4 °F 77.7 °F 90% 29.91 in 10.0 mi NE 3.5 mph - N/A   Clear
8:35 PM 79.7 °F - 79.3 °F 99% 29.91 in 10.0 mi NE 3.5 mph - N/A   Clear
8:55 PM 78.6 °F - 78.4 °F 99% 29.91 in 10.0 mi ENE 4.6 mph - N/A   Clear
9:15 PM 78.4 °F - 78.3 °F 99% 29.92 in 10.0 mi NE 3.5 mph - N/A   Clear
9:35 PM 78.4 °F - 78.8 °F 100% 29.92 in 10.0 mi NE 3.5 mph - N/A   Clear
9:55 PM 78.4 °F - 78.8 °F 100% 29.92 in 10.0 mi NE 3.5 mph - N/A   Clear
10:15 PM 77.4 °F - 77.7 °F 100% 29.92 in 10.0 mi NE 4.6 mph - N/A   Clear
10:35 PM 76.5 °F - - N/A% 29.93 in 10.0 mi NE 4.6 mph - N/A   Clear
10:55 PM 76.1 °F - - N/A% 29.94 in 10.0 mi NE 3.5 mph - N/A   Clear
11:15 PM 76.1 °F - - N/A% 29.94 in 10.0 mi ENE 3.5 mph - N/A   Clear
11:35 PM 76.1 °F - - N/A% 29.93 in 10.0 mi NE 4.6 mph - N/A   Clear
11:55 PM 76.1 °F - - N/A% 29.92 in 10.0 mi NE 3.5 mph - 0.01 in   Clear